Terminal Aerodrome Forecast
Issued by NWS Chicago, IL

Home | Current Version | Previous Version | Text Only | Print | Product List | Glossary On
Versions: 1 2 3 4 5 6 7 8 9 10 11 12 13 14 15 16 17 18 19 20 21 22 23 24 25 26 27 28 29 30 31
000
FTUS43 KLOT 240303 AAA
TAFRFD
TAF AMD
KRFD 240303Z 2403/2424 30013KT 6SM -RA FEW030 OVC035
     FM240500 30013KT 6SM -SHRA SCT025 OVC030
     FM240900 30014G22KT 5SM -SHRA SCT008 OVC012
     FM241500 31016G25KT 4SM SHRA SCT008 OVC015
     FM242000 30016G27KT P6SM BKN025 BKN090=

USA.gov is the U.S. government's official web portal to all federal, state and local government web resources and services.